Regional Weather Roundup
Issued by NWS

Home | Current Version | Previous Version | Graphics & Text | Print | Product List | Glossary On
Versions: 1 2 3 4 5 6 7 8 9 10 11 12 13 14 15 16 17 18 19 20 21 22 23 24 25 26 27 28 29 30 31 32 33 34 35 36 37 38 39 40 41 42 43 44 45 46 47 48 49 50
000
ASUS43 KOAX 201802
RWRNE

WEATHER ROUNDUP FOR NEBRASKA
NATIONAL WEATHER SERVICE OMAHA NE
1200 PM CST THU NOV 20 2014

NOTES: SATELLITE DATA IS BEING USED TO AUGMENT CLOUD COVER ABOVE
       12000 FEET.
       "FAIR" INDICATES FEW OR NO CLOUDS BELOW 12,000 FEET WITH NO
       SIGNIFICANT WEATHER AND/OR OBSTRUCTIONS TO VISIBILITY.

  * THESE STATIONS DO NOT REPORT WEATHER SUCH AS RAIN...SNOW OR FOG.

NEZ001>004-019>022-054>056-201900-
NEBRASKA PANHANDLE

CITY           SKY/WX    TMP DP  RH WIND       PRES   REMARKS
SCOTTSBLUFF    SUNNY     38  22  52 CALM      30.00F
6HR MIN TEMP:  11; 6HR MAX TEMP:  38;

ALLIANCE       SUNNY     40  23  50 SW7       29.98F
6HR MIN TEMP:   9; 6HR MAX TEMP:  40;

CHADRON        SUNNY     32  22  66 W3        29.99F
6HR MIN TEMP:   5; 6HR MAX TEMP:  32;

KIMBALL        SUNNY     51  14  22 W10       29.98F
SIDNEY         SUNNY     48  21  34 VRB7      30.01F
6HR MIN TEMP:  12; 6HR MAX TEMP:  49;

$$

NEZ057>060-069>072-079>082-201900-
SOUTHWEST NEBRASKA

CITY           SKY/WX    TMP DP  RH WIND       PRES   REMARKS
NORTH PLATTE   SUNNY     33  20  58 CALM      30.06F
6HR MIN TEMP:   7; 6HR MAX TEMP:  33;

IMPERIAL       SUNNY     40  20  44 E5        30.04F
6HR MIN TEMP:  13; 6HR MAX TEMP:  41;

LEXINGTON      SUNNY     33  22  63 E5        30.09F WCI  29
MCCOOK         SUNNY     34  20  56 VRB3      30.08F
6HR MIN TEMP:   9; 6HR MAX TEMP:  34;

OGALLALA       SUNNY     38  23  54 CALM      30.04F
$$

NEZ005>010-023>029-035>040-094-201900-
NORTH CENTRAL NEBRASKA

CITY           SKY/WX    TMP DP  RH WIND       PRES   REMARKS
VALENTINE      SUNNY     27  21  78 SE8       30.08F WCI  19
6HR MIN TEMP:  12; 6HR MAX TEMP:  27;

AINSWORTH      SUNNY     29  22  74 S8        30.09F WCI  21
BROKEN BOW     SUNNY     32  20  61 VRB6      30.09F WCI  26
6HR MIN TEMP:   6; 6HR MAX TEMP:  32;

O`NEILL        CLOUDY    23  17  77 CALM      30.15F
ORD            SUNNY     31  19  61 S3        30.13F
6HR MIN TEMP:   5; 6HR MAX TEMP:  31;

THEDFORD       SUNNY     34  28  79 SE3       30.05F
$$

NEZ041-046>049-061>064-073>077-083>087-201900-
SOUTH CENTRAL NEBRASKA

CITY           SKY/WX    TMP DP  RH WIND       PRES   REMARKS
GRAND ISLAND   SUNNY     30  19  63 SE7       30.17F WCI  23
6HR MIN TEMP:  10; 6HR MAX TEMP:  30;

AURORA         SUNNY     29  20  70 SE7       30.17F WCI  22
HASTINGS       SUNNY     34  18  52 SE9       30.14F WCI  27
6HR MIN TEMP:  17; 6HR MAX TEMP:  34;

HEBRON         SUNNY     35  18  50 SE7       30.19F WCI  29
HOLDREGE       SUNNY     32  19  58 S5        30.10F WCI  28
KEARNEY *      SUNNY     32  18  55 SE9       30.14F WCI  24
YORK           SUNNY     27  19  74 SE6       30.19F WCI  20
$$

NEZ011>018-030>034-042>045-201900-
NORTHEAST NEBRASKA

CITY           SKY/WX    TMP DP  RH WIND       PRES   REMARKS
NORFOLK        SUNNY     26  16  65 W3        30.18F
6HR MIN TEMP:   8; 6HR MAX TEMP:  27;

ALBION         MOSUNNY   28  18  65 CALM      30.17F
BLAIR          CLOUDY    26  16  64 NW5       30.21F WCI  21
COLUMBUS *     SUNNY     27  16  63 CALM      30.22F
FREMONT        CLOUDY    27  17  67 CALM      30.23S
TEKAMAH        PTSUNNY   28  16  60 NW6       30.23F WCI  22
6HR MIN TEMP:  10; 6HR MAX TEMP:  28;

WAYNE          MOSUNNY   26  16  65 NW7       30.21S WCI  19
$$

NEZ050>053-065>068-078-088>093-201900-
SOUTHEAST NEBRASKA

CITY           SKY/WX    TMP DP  RH WIND       PRES   REMARKS
LINCOLN        SUNNY     31  18  58 CALM      30.24F
6HR MIN TEMP:   9; 6HR MAX TEMP:  31;

OMAHA EPPLEY   CLOUDY    28  16  60 N6        30.25F WCI  22
6HR MIN TEMP:  13; 6HR MAX TEMP:  28;

BEATRICE       SUNNY     32  20  60 CALM      30.21F
FALLS CITY     SUNNY     32  18  56 N3        30.25F
6HR MIN TEMP:  13; 6HR MAX TEMP:  32;

NEBRASKA CITY  SUNNY     32  15  50 NW6       30.23F WCI  26
PLATTSMOUTH    CLOUDY    27  16  64 N3        30.24S
$$

NEZ044-045-051>053-067-201900-
OMAHA AREA

CITY           SKY/WX    TMP DP  RH WIND       PRES   REMARKS
OMAHA EPPLEY   CLOUDY    28  16  60 N6        30.25F WCI  22
6HR MIN TEMP:  13; 6HR MAX TEMP:  28;

BLAIR          CLOUDY    26  16  64 NW5       30.21F WCI  21
FREMONT        CLOUDY    27  17  67 CALM      30.23S
MILLARD        CLOUDY    27  15  59 CALM      30.23F
OFFUTT AFB     CLOUDY    28  15  60 SW1       30.23F
PLATTSMOUTH    CLOUDY    27  16  64 N3        30.24S
WAHOO          CLOUDY    27  16  63 NE3       30.22F
$$



USA.gov is the U.S. government's official web portal to all federal, state and local government web resources and services.